Regional Weather Roundup
Issued by NWS Little Rock, AR

Home | Current Version | Previous Version | Text Only | Print | Product List | Glossary On
Versions: 1 2 3 4 5 6 7 8 9 10 11 12 13 14 15 16 17 18 19 20 21 22 23 24 25 26 27 28 29 30 31 32
000
ASUS44 KLZK 151212
RWRLZK

WEATHER ROUNDUP FOR ARKANSAS
NATIONAL WEATHER SERVICE LITTLE ROCK AR
600 AM CST FRI DEC 15 2017

NOTE: "FAIR" INDICATES FEW OR NO CLOUDS BELOW 12,000 FEET WITH NO
SIGNIFICANT WEATHER AND/OR OBSTRUCTIONS TO VISIBILITY.

ARZ001-003-010-029-151300-
NORTHWEST ARKANSAS

CITY           SKY/WX    TMP DP  RH WIND       PRES   REMARKS
FAYETTEVILLE   CLOUDY    28  26  92 CALM      30.17R
6HR MIN TEMP:  22; 6HR MAX TEMP:  30;

FORT SMITH     CLEAR     29  25  85 W6        30.21R WCI  23
6HR MIN TEMP:  28; 6HR MAX TEMP:  35;

HARRISON       MOCLDY    34  25  69 W6        30.13S WCI  29
6HR MIN TEMP:  30; 6HR MAX TEMP:  35;

BENTONVILLE    MOCLDY    30  26  85 W3        30.18R
6HR MIN TEMP:  27; 6HR MAX TEMP:  31;

ROGERS         PTCLDY    30  26  85 W6        30.16R WCI  24
6HR MIN TEMP:  29; 6HR MAX TEMP:  33;

SILOAM SPGS    CLOUDY    32  28  85 SW3       30.18R
6HR MIN TEMP:  25; 6HR MAX TEMP:  33;

HIGHFILL       CLOUDY    32  27  81 W6        30.16R WCI  26
6HR MIN TEMP:  24; 6HR MAX TEMP:  33;

SPRINGDALE     MOCLDY    34  27  75 W7        30.18  WCI  28
$$

ARZ004-005-016-151300-
NORTH CENTRAL ARKANSAS

CITY           SKY/WX    TMP DP  RH WIND       PRES   REMARKS
BATESVILLE     CLEAR     26  23  88 NW3       30.20R
6HR MIN TEMP:  25; 6HR MAX TEMP:  34;

FLIPPIN        CLOUDY    29  25  85 CALM      30.17R
6HR MIN TEMP:  28; 6HR MAX TEMP:  31;

MTN HOME       CLOUDY    31  26  82 CALM      30.14S
6HR MIN TEMP:  28; 6HR MAX TEMP:  32;

$$

ARZ040-041-151300-
WEST CENTRAL ARKANSAS

CITY           SKY/WX    TMP DP  RH WIND       PRES   REMARKS
MENA           PTCLDY    27  25  93 CALM      30.20R
MOUNT IDA      PTCLDY    26  23  88 CALM      30.18R
6HR MIN TEMP:  25; 6HR MAX TEMP:  32; 6HR PCP: TRACE;

$$

ARZ009-017-025-026-028-151300-
NORTHEAST ARKANSAS

CITY           SKY/WX    TMP DP  RH WIND       PRES   REMARKS
JONESBORO      CLOUDY    30  26  85 W6        30.18R WCI  24
6HR MIN TEMP:  27; 6HR MAX TEMP:  32;

WALNUT RIDGE   CLEAR     24  23  96 SW5       30.19R WCI  18
6HR MIN TEMP:  24; 6HR MAX TEMP:  33;

BLYTHEVILLE    CLOUDY    30  28  92 W3        30.18R
6HR MIN TEMP:  26; 6HR MAX TEMP:  31;

$$

ARZ022-023-033-042-044-151300-
CENTRAL ARKANSAS

CITY           SKY/WX    TMP DP  RH WIND       PRES   REMARKS
LITTLE ROCK    PTCLDY    28  24  85 SW3       30.22R
6HR MIN TEMP:  27; 6HR MAX TEMP:  37;

N LITTLE ROCK    N/A     33  26  78 CALM      30.24R
6HR MIN TEMP:  32; 6HR MAX TEMP:  36;

JACKSONVILLE   CLEAR     24  20  85 CALM      30.20R
6HR MIN TEMP:  23; 6HR MAX TEMP:  28;

SEARCY         CLEAR     22  22 100 CALM      30.21R
6HR MIN TEMP:  21; 6HR MAX TEMP:  29;

HOT SPRINGS    CLEAR     29  27  92 CALM      30.22R
6HR MIN TEMP:  29; 6HR MAX TEMP:  35;

RUSSELLVILLE   PTCLDY    24  23  96 CALM      30.20R
6HR MIN TEMP:  23; 6HR MAX TEMP:  27;

CLINTON        CLOUDY    25  23  93 CALM      30.20R
$$

ARZ036-151300-
EAST ARKANSAS

CITY           SKY/WX    TMP DP  RH WIND       PRES   REMARKS
WEST MEMPHIS   MOCLDY    23  23 100 CALM      30.18R
6HR MIN TEMP:  22; 6HR MAX TEMP:  29;

$$

ARZ050-053-066-070-073-151300-
SOUTHWEST ARKANSAS

CITY           SKY/WX    TMP DP  RH WIND       PRES   REMARKS
ARKADELPHIA    FAIR      23  20  88 CALM      30.24R
6HR MIN TEMP:  23; 6HR MAX TEMP:  33;

CAMDEN         CLOUDY    28  25  86 CALM      30.24R
TEXARKANA      MOCLDY    34  28  79 CALM      30.24R
6HR MIN TEMP:  31; 6HR MAX TEMP:  39;

EL DORADO      CLOUDY    31  29  92 CALM      30.24R
6HR MIN TEMP:  29; 6HR MAX TEMP:  41;

DE QUEEN       PTCLDY    24  24 100 CALM      30.22R
6HR MIN TEMP:  23; 6HR MAX TEMP:  30;

$$

ARZ056-057-069-151300-
SOUTHEAST ARKANSAS

CITY           SKY/WX    TMP DP  RH WIND       PRES   REMARKS
PINE BLUFF     PTCLDY    28  25  88 W3        30.22R
6HR MIN TEMP:  28; 6HR MAX TEMP:  36;

STUTTGART      CLEAR     30  26  85 W3        30.21S
6HR MIN TEMP:  28; 6HR MAX TEMP:  33;

MONTICELLO     CLOUDY    32  26  78 W3        30.22R
6HR MIN TEMP:  30; 6HR MAX TEMP:  40;


$$






USA.gov is the U.S. government's official web portal to all federal, state and local government web resources and services.